Location: Shannon
(40.5500°S, 175.4167°E)
Time: 21:11:27
(UTC+00:00)

Cosmos 2366 rocket - Pass Details

Date: 17 November 2025
Orbit: 953 x 997 km, 82.9° (Epoch: 06 December)

Event Time Altitude Azimuth Distance (km) Brightness Sun altitude
Exits shadow 14:04:07 52° 331° (NNW) 1,197 4.0 -24.0°
Maximum altitude 14:05:41 75° 262° (W) 1,020 3.9 -23.9°
Drops below altitude 10° 14:12:03 10° 176° (S) 2,769 7.2 -23.2°
Sets 14:14:37 0° 174° (S) 3,730 8.1 -23.0°
